Location: Владивосток
(43.1151°N, 131.8856°E)
Time: 09:39:29
(UTC+10:00)

DUCHIFAT 1 - Visible Passes

Search period start: 28 June 2022 00:00
Search period end: 08 July 2022 00:00
Orbit: 580 x 598 km, 98.0° (Epoch: 27 June)

Date Brightness Start Highest point End Pass type
(mag) Time Alt. Az. Time Alt. Az. Time Alt. Az.
28 Jun ? 02:29:31 10° ENE 02:30:17 10° E 02:31:03 10° E visible
28 Jun ? 04:02:01 10° N 04:06:11 69° WNW 04:09:13 18° SSW visible
29 Jun ? 02:36:05 10° ENE 02:37:59 13° E 02:39:54 10° ESE visible
29 Jun ? 04:09:41 10° N 04:13:48 57° WNW 04:16:55 17° SSW visible
30 Jun ? 02:43:10 10° NE 02:45:41 15° E 02:48:06 10° SE visible
30 Jun ? 04:17:22 10° N 04:21:23 47° WNW 04:24:36 15° SW visible
01 Jul ? 02:50:24 10° NE 02:53:22 19° E 02:55:47 12° SE visible
01 Jul ? 04:25:04 10° N 04:28:59 39° WNW 04:32:17 13° SW visible
02 Jul ? 02:57:44 10° NE 03:01:02 22° E 03:03:27 14° SE visible
02 Jul ? 04:32:47 10° N 04:36:32 32° WNW 04:39:58 12° SW visible
03 Jul ? 03:05:08 10° NE 03:08:42 26° E 03:11:08 16° SE visible
03 Jul ? 04:40:32 10° N 04:44:06 27° WNW 04:47:38 10° SW visible
04 Jul ? 03:12:34 10° NNE 03:16:21 32° E 03:18:47 18° SSE visible
04 Jul ? 04:48:18 10° NNW 04:51:39 23° WNW 04:54:59 10° WSW visible
05 Jul ? 03:20:02 10° NNE 03:23:59 38° E 03:26:27 20° SSE visible
05 Jul ? 04:56:07 10° NNW 04:59:11 20° WNW 05:02:13 10° WSW visible
06 Jul ? 03:27:31 10° NNE 03:31:36 46° E 03:34:06 21° SSE visible
07 Jul ? 03:35:03 10° NNE 03:39:12 57° E 03:41:45 22° S visible
